EW0802 Weather Reports


Display with metric or nautical units.
time (UTC)temp
F
wind
direction
speed
MPH
gust
MPH
rain 1hr
in
rain 24hr
in
rain mn
in
humidity
%
barometer
mb
20201023003146 79 117 0.0 3.0 0.00 0.00 0.00 69 1009.3
20201023001627 80 111 0.0 10.0 0.00 0.00 0.00 68 1009.2
20201023000058 80 130 0.0 4.0 0.00 0.00 0.00 68 1009.1
20201022234630 80 137 0.0 4.0 0.00 0.00 0.00 67 1009.2
20201022233140 81 97 0.0 8.0 0.00 0.00 0.00 65 1009.0
20201022231626 82 119 0.0 11.0 0.00 0.00 0.00 64 1009.0
20201022230155 82 107 0.0 2.0 0.00 0.00 0.00 64 1009.0
20201022224649 83 195 0.0 8.0 0.00 0.00 0.00 62 1009.2
20201022223155 83 136 1.0 7.0 0.00 0.00 0.00 62 1009.2
20201022221631 83 98 0.0 9.0 0.00 0.00 0.00 61 1009.3
20201022220206 84 168 0.0 8.0 0.00 0.00 0.00 61 1009.3
20201022214644 84 186 0.0 6.0 0.00 0.00 0.00 62 1009.3
20201022213103 85 175 0.0 9.0 0.00 0.00 0.00 59 1009.3
20201022211608 84 78 3.0 10.0 0.00 0.00 0.00 59 1009.3
20201022210113 84 190 0.0 8.0 0.00 0.00 0.00 60 1009.4
20201022204642 84 95 3.0 10.0 0.00 0.00 0.00 59 1009.4
20201022203201 84 153 1.0 10.0 0.00 0.00 0.00 61 1009.6
20201022201638 84 220 0.0 8.0 0.00 0.00 0.00 61 1009.7
20201022200143 84 98 1.0 16.0 0.00 0.00 0.00 61 1009.9
20201022194600 83 163 1.0 7.0 0.00 0.00 0.00 62 1010.2
20201022191623 82 135 0.0 10.0 0.00 0.00 0.00 64 1010.8
20201022190103 82 126 1.0 10.0 0.00 0.00 0.00 64 1011.0
20201022184605 83 119 1.0 11.0 0.00 0.00 0.00 63 1011.3
20201022183048 82 189 3.0 11.0 0.00 0.00 0.00 65 1011.5
20201022182314 81 111 3.0 13.0 0.00 0.00 0.00 66 1011.9
20201022180045 82 105 0.0 11.0 0.00 0.00 0.00 66 1012.1
20201022174538 81 109 0.0 9.0 0.00 0.00 0.00 70 1012.2
20201022173028 79 144 0.0 12.0 0.00 0.00 0.00 72 1012.5
20201022171516 79 192 5.0 16.0 0.00 0.00 0.00 73 1013.0
20201022170009 77 163 2.0 12.0 0.00 0.00 0.00 76 1013.2
20201022164639 76 152 0.0 9.0 0.00 0.00 0.00 79 1013.4
20201022163207 75 130 1.0 10.0 0.00 0.00 0.00 81 1013.7
20201022161652 74 120 0.0 8.0 0.00 0.00 0.00 84 1013.9
20201022160139 73 80 1.0 11.0 0.00 0.00 0.00 85 1014.0
20201022154719 73 125 1.0 8.0 0.00 0.00 0.00 87 1014.1
20201022153133 72 163 1.0 5.0 0.00 0.00 0.00 88 1014.1
20201022151641 72 194 0.0 7.0 0.00 0.00 0.00 89 1014.2
20201022150130 72 169 0.0 2.0 0.00 0.00 0.00 90 1014.1
20201022144738 71 126 0.0 12.0 0.00 0.00 0.00 92 1014.1
20201022143138 70 248 0.0 4.0 0.00 0.00 0.00 94 1014.0
20201022141558 70 140 0.0 7.0 0.00 0.00 0.00 94 1013.9
20201022140116 69 146 0.0 8.0 0.00 0.00 0.00 94 1013.7
20201022134719 69 146 1.0 7.0 0.00 0.00 0.00 94 1013.6
20201022133105 69 130 0.0 9.0 0.00 0.00 0.00 94 1013.4
20201022131601 69 108 0.0 4.0 0.00 0.00 0.00 94 1013.2
20201022130057 69 158 0.0 3.0 0.00 0.00 0.00 94 1013.1
20201022124558 69 153 0.0 0.0 0.00 0.00 0.00 94 1013.1
20201022123122 69 162 0.0 0.0 0.00 0.00 0.00 94 1013.1
20201022121600 69 158 0.0 3.0 0.00 0.00 0.00 94 1013.0
20201022120056 69 167 0.0 5.0 0.00 0.00 0.00 93 1013.0
20201022114556 69 157 0.0 0.0 0.00 0.00 0.00 93 1013.0
20201022113035 69 157 0.0 3.0 0.00 0.00 0.00 93 1012.9
20201022111534 69 112 0.0 2.0 0.00 0.00 0.00 92 1012.8
20201022110037 69 138 0.0 5.0 0.00 0.00 0.00 92 1012.7
20201022104536 69 138 0.0 2.0 0.00 0.00 0.00 91 1012.7
20201022103028 69 159 0.0 3.0 0.00 0.00 0.00 91 1012.7
20201022101529 69 80 0.0 3.0 0.00 0.00 0.00 90 1012.7
20201022100053 70 140 0.0 7.0 0.00 0.00 0.00 90 1012.7
20201022094537 70 148 0.0 4.0 0.00 0.00 0.00 89 1012.6
20201022093027 70 178 0.0 5.0 0.00 0.00 0.00 88 1012.7
20201022091522 70 147 0.0 8.0 0.00 0.00 0.00 87 1012.7
20201022090033 70 146 0.0 5.0 0.00 0.00 0.00 87 1012.7
20201022084522 71 200 0.0 7.0 0.00 0.00 0.00 86 1012.7
20201022083026 71 137 0.0 5.0 0.00 0.00 0.00 85 1012.7
20201022081521 71 148 0.0 3.0 0.00 0.00 0.00 84 1012.9
20201022080032 72 169 0.0 5.0 0.00 0.00 0.00 83 1012.9
20201022074517 72 90 0.0 6.0 0.00 0.00 0.00 82 1012.8
20201022073010 72 175 0.0 7.0 0.00 0.00 0.00 81 1012.8
20201022071519 73 173 0.0 8.0 0.00 0.00 0.00 81 1012.7
20201022070044 73 190 0.0 7.0 0.00 0.00 0.00 80 1012.8
20201022064510 73 146 0.0 8.0 0.00 0.00 0.00 80 1012.8
20201022063009 73 138 0.0 5.0 0.00 0.00 0.00 81 1012.8
20201022061657 72 145 0.0 2.0 0.00 0.00 0.00 81 1012.8
20201022060248 72 141 0.0 2.0 0.00 0.00 0.00 81 1012.9
20201022054621 73 161 0.0 3.0 0.00 0.00 0.00 80 1012.9
20201022053206 73 128 0.0 5.0 0.00 0.00 0.00 79 1013.0
20201022051611 73 137 0.0 4.0 0.00 0.00 0.00 80 1013.0
20201022050140 73 101 0.0 2.0 0.00 0.00 0.00 81 1013.1
20201022044654 72 145 0.0 0.0 0.00 0.00 0.00 82 1013.2
20201022043112 72 115 0.0 0.0 0.00 0.00 0.00 81 1013.2
20201022041729 73 115 0.0 0.0 0.00 0.00 0.00 80 1013.3
20201022040144 73 117 0.0 0.0 0.00 0.00 0.00 79 1013.3
20201022034652 74 117 0.0 0.0 0.00 0.00 0.00 78 1013.4
20201022033128 74 111 0.0 1.0 0.00 0.00 0.00 77 1013.3
20201022031550 74 129 0.0 1.0 0.00 0.00 0.00 77 1013.3
20201022030145 74 145 0.0 0.0 0.00 0.00 0.00 76 1013.2
20201022024707 74 130 0.0 1.0 0.00 0.00 0.00 75 1013.2
20201022023104 75 105 0.0 0.0 0.00 0.00 0.00 74 1013.2
20201022021558 75 120 0.0 3.0 0.00 0.00 0.00 73 1013.2
20201022020228 76 99 0.0 0.0 0.00 0.00 0.00 72 1013.3
20201022014654 76 147 0.0 3.0 0.00 0.00 0.00 71 1013.2
20201022013134 76 100 0.0 0.0 0.00 0.00 0.00 70 1013.2
20201022010052 77 89 0.0 0.0 0.00 0.00 0.00 68 1013.1
20201022004616 78 111 0.0 3.0 0.00 0.00 0.00 67 1013.0